This demonstration page uses our WeatherBlox Daily Observations layout. Learn more.

Left ArrowRight Arrow

39.29038, -76.61219

Hourly Observations for February 18, 2017

Temp ( °F °C ) Dew Point ( °F °C ) Humidity (%) Winds ( mph kmh ) Pressure ( in mb ) Visibility ( mi km ) Precip ( " mm )
12:54 am 00:54 undefined 38 3.3 24 -4.4 57 57 undefined N/A 29.91 1013 N/A N/A
1:54 am 01:54 undefined 38 3.3 24 -4.4 57 57 undefined N/A 29.90 1013 N/A N/A
2:54 am 02:54 undefined 38 3.3 24 -4.4 57 57 undefined N/A 29.89 1012 N/A N/A
3:54 am 03:54 undefined 37 2.8 25 -3.9 62 62 undefined N/A 29.88 1012 N/A N/A
4:54 am 04:54 undefined 36 2.2 24 -4.4 62 62 undefined N/A 29.88 1012 N/A N/A
5:54 am 05:54 undefined 36 2.2 24 -4.4 62 62 undefined N/A 29.86 1011 N/A N/A
6:54 am 06:54 undefined 35 1.7 24 -4.4 64 64 undefined N/A 29.88 1012 N/A N/A
7:54 am 07:54 undefined 37 2.8 25 -3.9 62 62 undefined N/A 29.89 1012 N/A N/A
8:54 am 08:54 undefined 44 6.7 26 -3.3 49 49 undefined N/A 29.89 1012 N/A N/A
9:54 am 09:54 undefined 47 8.3 29 -1.7 50 50 undefined N/A 29.87 1012 N/A N/A
10:54 am 10:54 undefined 54 12.2 31 -0.6 42 42 undefined N/A 29.85 1011 N/A N/A
11:54 am 11:54 undefined 54 12.2 32 undefined 43 43 undefined N/A 29.82 1010 N/A N/A
12:54 pm 12:54 undefined 56 13.3 34 1.1 44 44 undefined N/A 29.78 1009 N/A N/A
1:54 pm 13:54 undefined 69 20.6 29 -1.7 22 22 undefined N/A 29.75 1007 N/A N/A
2:54 pm 14:54 undefined 72 22.2 29 -1.7 20 20 undefined N/A 29.72 1007 N/A N/A
3:54 pm 15:54 undefined 69 20.6 28 -2.2 22 22 undefined N/A 29.72 1007 N/A N/A
4:54 pm 16:54 undefined 68 20 29 -1.7 23 23 undefined N/A 29.73 1007 N/A N/A
5:54 pm 17:54 undefined 65 18.3 30 -1.1 27 27 undefined N/A 29.73 1007 N/A N/A
6:54 pm 18:54 undefined 63 17.2 30 -1.1 29 29 undefined N/A 29.76 1008 N/A N/A
7:54 pm 19:54 undefined 62 16.7 31 -0.6 31 31 undefined N/A 29.75 1008 N/A N/A
8:54 pm 20:54 undefined 55 12.8 35 1.7 47 47 undefined N/A 29.75 1007 N/A N/A
9:54 pm 21:54 undefined 59 15 32 undefined 36 36 undefined N/A 29.76 1008 N/A N/A
10:54 pm 22:54 undefined 59 15 31 -0.6 35 35 undefined N/A 29.77 1008 N/A N/A
11:54 pm 23:54 undefined 61 16.1 30 -1.1 31 31 undefined N/A 29.77 1008 N/A N/A

Powered by AerisWeather